This is the latest recevied weather packets stored in our database for station/object F6DEV-13. If no packets are shown the sender has not sent any weather packets the latest 10 day(s).
| Time | Temp. | Humidity | Pressure | Rain* | Wind** | Luminosity | Snow |
|---|---|---|---|---|---|---|---|
| 1778165682 | 19.44° C | 42% | 1010 hPa | 0 mm | - | - | - |
| 1778165343 | 20° C | 44% | 1010 hPa | 0 mm | - | - | - |
| 1778165020 | 19.44° C | 41% | 1010 hPa | 0 mm | - | - | - |
| 1778164683 | 19.44° C | 42% | 1010 hPa | 0 mm | - | - | - |
| 1778164384 | 19.44° C | 40% | 1010 hPa | 0 mm | - | - | - |
| 1778164087 | 20° C | 41% | 1010 hPa | 0 mm | - | - | - |
| 1778163756 | 19.44° C | 45% | 1010 hPa | 0 mm | - | - | - |
| 1778163425 | 18.89° C | 45% | 1010 hPa | 0 mm | - | - | - |
| 1778163425 | 18.89° C | 45% | 1010 hPa | 0 mm | - | - | - |
| 1778163124 | 18.89° C | 44% | 1010 hPa | 0 mm | - | - | - |
| 1778162862 | 18.89° C | 47% | 1010 hPa | 0 mm | - | - | - |
| 1778162825 | 18.89° C | 47% | 1010 hPa | 0 mm | - | - | - |
| 1778162497 | 18.33° C | 44% | 1010 hPa | 0 mm | - | - | - |
| 1778162174 | 18.89° C | 46% | 1010 hPa | 0 mm | - | - | - |
| 1778161877 | 18.33° C | 45% | 1010 hPa | 0 mm | - | - | - |
| 1778161567 | 18.33° C | 47% | 1010 hPa | 0 mm | - | - | - |
| 1778161233 | 18.33° C | 46% | 1010 hPa | 0 mm | - | - | - |
| 1778160933 | 18.89° C | 44% | 1010 hPa | 0 mm | - | - | - |
| 1778160603 | 18.89° C | 45% | 1010 hPa | 0 mm | - | - | - |
| 1778160305 | 18.89° C | 47% | 1010 hPa | 0 mm | - | - | - |
| 1778159989 | 18.33° C | 47% | 1010 hPa | 0 mm | - | - | - |
| 1778159643 | 18.33° C | 48% | 1010 hPa | 0 mm | - | - | - |
| 1778159314 | 18.33° C | 47% | 1010 hPa | 0 mm | - | - | - |
| 1778159016 | 18.33° C | 47% | 1010 hPa | 0 mm | - | - | - |
| 1778158744 | 18.33° C | 48% | 1010 hPa | 0 mm | - | - | - |
* Rain latest hour (hover to see other rain measurements)
** Current wind speed in m/s (hover to see current wind gust speed)